Weather History for Beckley, WV

Change the Weather History Date:

Saturday, September 6, 2014

  Actual Average Record
Temperature  
Mean Temperature 75 °F 66 °F  
Max Temperature 84 °F 76 °F 94 °F (1954)
Min Temperature 65 °F 57 °F 36 °F (1924)
Degree Days  
Heating Degree Days 0 2  
Month to date heating degree days 0 7  
Since 1 July heating degree days 29 28  
Cooling Degree Days 10 3  
Month to date cooling degree days 58 21  
Year to date cooling degree days 582 514  
Growing Degree Days 24 (Base 50)    
Moisture  
Dew Point 64 °F    
Average Humidity 76    
Maximum Humidity 93    
Minimum Humidity 58    
Precipitation  
Precipitation T in 0.10 in 2.51 in (1996)
Month to date precipitation 1.72 0.59  
Year to date precipitation 26.22 30.25  
Snow  
Snow 0.00 in - - ()
Month to date snowfall 0.0  
Since 1 September snowfall 0.0  
Snow Depth 0.00 in    
Sea Level Pressure  
Sea Level Pressure 30.07 in    
Wind  
Wind Speed 5 mph (SSW)    
Max Wind Speed 18 mph    
Max Gust Speed 24 mph    
Visibility 10 miles    
Events      
T = Trace of Precipitation, MM = Missing Value Source: NWS Daily Summary

Daily Weather History Graph

Daily Weather History Graph

Search for Another Location

Airport:

Trip Planner

Search our weather history database for the weather conditions in past years. The results will help you decide how hot, cold, wet, or windy it might be!

Date:

Astronomy

Sep. 06, 2014 Rise Set
Actual Time 6:58 AM EDT 7:46 PM EDT
Civil Twilight 6:32 AM EDT 8:12 PM EDT
Nautical Twilight 6:00 AM EDT 8:44 PM EDT
Astronomical Twilight 5:28 AM EDT 9:16 PM EDT
Moon 5:59 PM EDT (9/6) 4:01 AM EDT (9/6)
Length of Visible Light 13h 40m
Length of Day
12h 47m
Waxing Gibbous, 91% of the Moon is Illuminated
Sep 6
Waxing Gibbous
Sep 8
Full
Sep 15
Last Quarter
Sep 24
New
Oct 1
First Quarter

Hourly Weather History & Observations

Time (EDT) Temp. Heat Index Dew Point Humidity Pressure Visibility Wind Dir Wind Speed Gust Speed Precip Events Conditions
12:51 AM 66.9 °F - 63.0 °F 87% 30.08 in 10.0 mi SSW 4.6 mph - N/A   Clear
1:51 AM 64.9 °F - 62.1 °F 90% 30.08 in 10.0 mi South 3.5 mph - N/A   Clear
2:51 AM 66.0 °F - 63.0 °F 90% 30.06 in 10.0 mi Calm Calm - N/A   Clear
3:51 AM 66.9 °F - 64.0 °F 90% 30.07 in 10.0 mi South 5.8 mph - N/A   Partly Cloudy
4:51 AM 66.2 °F - 64.4 °F 94% 30.14 in 10.0 mi Calm Calm - N/A   Clear
5:51 AM 64.9 °F - 63.0 °F 93% 30.06 in 7.0 mi SSW 3.5 mph - N/A   Clear
6:51 AM 64.9 °F - 63.0 °F 93% 30.06 in 10.0 mi South 4.6 mph - N/A   Clear
7:51 AM 68.0 °F - 64.4 °F 88% 30.15 in 10.0 mi South 3.5 mph - N/A   Clear
8:51 AM 72.0 °F - 66.9 °F 84% 30.06 in 10.0 mi SW 4.6 mph - N/A   Clear
9:51 AM 73.0 °F - 66.9 °F 81% 30.06 in 10.0 mi SW 6.9 mph - N/A   Clear
10:51 AM 75.2 °F - 68.0 °F 78% 30.16 in 10.0 mi WSW 5.8 mph - N/A   Mostly Cloudy
11:10 AM 75.9 °F - 68.0 °F 76% 30.15 in 10.0 mi WSW 4.6 mph - N/A   Scattered Clouds
11:51 AM 78.1 °F - 68.0 °F 71% 30.04 in 10.0 mi WSW 6.9 mph - N/A   Partly Cloudy
12:51 PM 80.1 °F 82.3 °F 66.9 °F 64% 30.02 in 10.0 mi SSW 5.8 mph - N/A   Scattered Clouds
1:51 PM 80.6 °F 82.7 °F 66.2 °F 61% 30.10 in 10.0 mi SW 5.8 mph - N/A   Clear
2:51 PM 82.0 °F 84.1 °F 66.0 °F 58% 29.96 in 10.0 mi Variable 3.5 mph - N/A   Partly Cloudy
4:51 PM 69.8 °F - 62.6 °F 78% 30.09 in 10.0 mi NNE 8.1 mph - N/A   Mostly Cloudy
5:33 PM 69.1 °F - 64.0 °F 84% 30.11 in 10.0 mi NNE 6.9 mph 21.9 mph N/A   Mostly Cloudy
5:40 PM 68.0 °F - 64.0 °F 87% 30.10 in 10.0 mi NE 6.9 mph - N/A   Mostly Cloudy
5:47 PM 68.0 °F - 64.4 °F 88% 30.10 in 10.0 mi ENE 8.1 mph - N/A   Scattered Clouds
5:51 PM 68.0 °F - 63.0 °F 84% 30.03 in 10.0 mi NE 8.1 mph - N/A   Scattered Clouds
5:59 PM 68.0 °F - 63.0 °F 84% 30.11 in 10.0 mi NE 4.6 mph - N/A   Mostly Cloudy
6:51 PM 66.9 °F - 64.0 °F 90% 30.02 in 10.0 mi East 5.8 mph - N/A   Partly Cloudy
7:51 PM 66.9 °F - 64.0 °F 90% 30.01 in 10.0 mi North 6.9 mph - 0.00 in   Clear
8:51 PM 66.0 °F - 63.0 °F 90% 30.02 in 10.0 mi South 4.6 mph - N/A   Clear
9:51 PM 66.0 °F - 63.0 °F 90% 30.04 in 10.0 mi Calm Calm - N/A   Mostly Cloudy
10:22 PM 66.0 °F - 63.0 °F 90% 30.13 in 10.0 mi South 3.5 mph - N/A   Mostly Cloudy
10:35 PM 66.0 °F - 63.0 °F 90% 30.14 in 10.0 mi SW 3.5 mph - N/A   Mostly Cloudy
10:43 PM 66.0 °F - 63.0 °F 90% 30.14 in 10.0 mi WSW 5.8 mph - N/A   Mostly Cloudy
10:51 PM 66.2 °F - 64.4 °F 94% 30.14 in 10.0 mi WSW 5.8 mph - N/A   Mostly Cloudy
11:51 PM 66.0 °F - 64.0 °F 93% 30.04 in 10.0 mi WSW 3.5 mph - N/A   Overcast